Location: Perryvale
(54.4667°N, 113.3833°W)
Time: 19:45:04
(UTC+00:00)

Transit 2A - Pass Details

Date: 19 May 2024
Orbit: 592 x 959 km, 66.7° (Epoch: 19 June)

Event Time Altitude Azimuth Distance (km) Brightness Sun altitude
Exits shadow 08:16:11 14° 236° (SW) 1,846 7.6 -15.0°
Maximum altitude 08:20:15 65° 317° (NW) 794 6.2 -14.9°
Drops below altitude 10° 08:25:33 10° 40° (NE) 2,344 9.5 -14.7°
Sets 08:28:08 0° 43° (NE) 3,339 10.4 -14.6°
